Time,TemperatureF,DewpointF,PressureIn,WindDirection,WindDirectionDegrees,WindSpeedMPH,WindSpeedGustMPH,Humidity,HourlyPrecipIn,Conditions,Clouds,dailyrainin,SoftwareType,DateUTC
2013-10-22 00:14:00,76.0,74.0,29.96,WSW,243,2.0,3.0,93,99.99,,,-99.99,,2013-10-22 04:14:00,
2013-10-22 00:25:00,75.0,73.0,29.96,North,0,0.0,0.0,94,99.99,,,-99.99,,2013-10-22 04:25:00,
2013-10-22 00:55:00,75.0,73.0,29.97,North,0,0.0,0.0,95,99.99,,,-99.99,,2013-10-22 04:55:00,
2013-10-22 01:22:00,74.0,73.0,29.97,WSW,239,3.0,4.0,96,99.99,,,-99.99,,2013-10-22 05:22:00,
2013-10-22 01:52:00,74.0,73.0,29.96,North,0,0.0,0.0,97,99.99,,,-99.99,,2013-10-22 05:52:00,
2013-10-22 02:22:00,74.0,73.0,29.96,North,0,0.0,0.0,97,99.99,,,-99.99,,2013-10-22 06:22:00,
2013-10-22 02:54:00,73.0,72.0,29.94,SSW,201,1.0,2.0,98,99.99,,,-99.99,,2013-10-22 06:54:00,
2013-10-22 03:23:00,73.0,73.0,29.94,South,177,3.0,5.0,99,99.99,,,-99.99,,2013-10-22 07:23:00,
2013-10-22 03:52:00,73.0,73.0,29.93,SSE,165,0.0,2.0,99,99.99,,,-99.99,,2013-10-22 07:52:00,
2013-10-22 04:12:00,73.0,73.0,29.93,SSW,198,1.0,2.0,100,99.99,,,-99.99,,2013-10-22 08:12:00,
2013-10-22 04:22:00,73.0,73.0,29.93,SSW,198,1.0,2.0,100,99.99,,,-99.99,,2013-10-22 08:22:00,
2013-10-22 04:52:00,73.0,73.0,29.92,North,0,0.0,0.0,100,99.99,,,-99.99,,2013-10-22 08:52:00,
2013-10-22 05:22:00,72.0,72.0,29.92,North,0,0.0,0.0,100,99.99,,,-99.99,,2013-10-22 09:22:00,
2013-10-22 05:54:00,72.0,72.0,29.93,North,0,0.0,0.0,100,99.99,,,-99.99,,2013-10-22 09:54:00,
2013-10-22 06:23:00,72.0,72.0,29.93,North,0,0.0,0.0,100,99.99,,,-99.99,,2013-10-22 10:23:00,
2013-10-22 06:53:00,72.0,72.0,29.94,WSW,240,1.0,3.0,100,99.99,,,-99.99,,2013-10-22 10:53:00,
2013-10-22 07:22:00,72.0,72.0,29.95,WSW,242,0.0,1.0,100,99.99,,,-99.99,,2013-10-22 11:22:00,
2013-10-22 07:53:00,71.0,71.0,29.96,North,0,0.0,0.0,100,99.99,,,-99.99,,2013-10-22 11:53:00,
2013-10-22 08:22:00,71.0,71.0,29.96,SW,236,0.0,2.0,100,99.99,,,-99.99,,2013-10-22 12:22:00,
2013-10-22 08:42:00,72.0,72.0,29.96,WSW,240,0.0,1.0,100,99.99,,,-99.99,,2013-10-22 12:42:00,
2013-10-22 08:52:00,72.0,72.0,29.96,WSW,239,0.0,1.0,100,99.99,,,-99.99,,2013-10-22 12:52:00,
2013-10-22 09:22:00,74.0,74.0,29.96,SW,229,4.0,5.0,100,99.99,,,-99.99,,2013-10-22 13:22:00,
2013-10-22 09:42:00,75.0,75.0,29.96,SW,221,4.0,6.0,100,99.99,,,-99.99,,2013-10-22 13:42:00,
2013-10-22 09:53:00,77.0,77.0,29.96,SSW,203,4.0,7.0,99,99.99,,,-99.99,,2013-10-22 13:53:00,
2013-10-22 10:21:00,80.0,77.0,29.96,SW,219,4.0,8.0,91,99.99,,,-99.99,,2013-10-22 14:21:00,
2013-10-22 10:52:00,81.0,76.0,29.96,WSW,238,4.0,8.0,85,99.99,,,-99.99,,2013-10-22 14:52:00,
2013-10-22 11:22:00,83.0,74.0,29.94,SSW,194,6.0,11.0,75,99.99,,,-99.99,,2013-10-22 15:22:00,
2013-10-22 11:54:00,84.0,75.0,29.94,SSW,207,7.0,10.0,74,99.99,,,-99.99,,2013-10-22 15:54:00,
2013-10-22 12:23:00,86.0,75.0,29.93,South,181,8.0,14.0,69,99.99,,,-99.99,,2013-10-22 16:23:00,
2013-10-22 12:53:00,86.0,73.0,29.93,SSW,203,6.0,10.0,65,99.99,,,-99.99,,2013-10-22 16:53:00,
2013-10-22 13:22:00,88.0,74.0,29.92,South,187,8.0,13.0,63,99.99,,,-99.99,,2013-10-22 17:22:00,
2013-10-22 13:43:00,88.0,73.0,29.91,SW,218,8.0,13.0,61,99.99,,,-99.99,,2013-10-22 17:43:00,
2013-10-22 13:53:00,88.0,73.0,29.90,SW,236,9.0,12.0,61,99.99,,,-99.99,,2013-10-22 17:53:00,
2013-10-22 14:22:00,89.0,73.0,29.88,SSW,204,7.0,12.0,59,99.99,,,-99.99,,2013-10-22 18:22:00,
2013-10-22 14:42:00,90.0,72.0,29.88,South,190,8.0,14.0,55,99.99,,,-99.99,,2013-10-22 18:42:00,
2013-10-22 14:52:00,90.0,72.0,29.87,West,259,7.0,11.0,55,99.99,,,-99.99,,2013-10-22 18:52:00,
2013-10-22 15:22:00,91.0,73.0,29.87,West,259,9.0,14.0,55,99.99,,,-99.99,,2013-10-22 19:22:00,
2013-10-22 15:42:00,91.0,73.0,29.87,SW,218,7.0,11.0,56,99.99,,,-99.99,,2013-10-22 19:42:00,
2013-10-22 15:52:00,91.0,73.0,29.86,WSW,255,7.0,12.0,56,99.99,,,-99.99,,2013-10-22 19:52:00,
2013-10-22 16:22:00,89.0,73.0,29.86,SW,228,9.0,14.0,59,99.99,,,-99.99,,2013-10-22 20:22:00,
2013-10-22 16:43:00,90.0,73.0,29.85,South,184,6.0,10.0,58,99.99,,,-99.99,,2013-10-22 20:43:00,
2013-10-22 16:52:00,90.0,73.0,29.85,WSW,253,11.0,17.0,57,99.99,,,-99.99,,2013-10-22 20:52:00,
2013-10-22 17:23:00,88.0,73.0,29.85,SW,232,10.0,15.0,62,99.99,,,-99.99,,2013-10-22 21:23:00,
2013-10-22 17:44:00,86.0,75.0,29.85,WSW,239,5.0,9.0,71,99.99,,,-99.99,,2013-10-22 21:44:00,
2013-10-22 17:54:00,85.0,76.0,29.85,South,188,5.0,10.0,75,99.99,,,-99.99,,2013-10-22 21:54:00,
2013-10-22 18:24:00,82.0,77.0,29.84,West,273,5.0,8.0,86,99.99,,,-99.99,,2013-10-22 22:24:00,
2013-10-22 18:44:00,81.0,76.0,29.84,West,267,4.0,6.0,86,99.99,,,-99.99,,2013-10-22 22:44:00,
2013-10-22 18:54:00,81.0,77.0,29.84,WSW,256,4.0,8.0,87,99.99,,,-99.99,,2013-10-22 22:54:00,
2013-10-22 19:23:00,80.0,76.0,29.85,WSW,243,4.0,7.0,88,99.99,,,-99.99,,2013-10-22 23:23:00,
2013-10-22 19:53:00,80.0,76.0,29.85,SW,233,4.0,6.0,88,99.99,,,-99.99,,2013-10-22 23:53:00,
2013-10-22 20:11:00,80.0,76.0,29.85,WSW,245,4.0,6.0,89,99.99,,,-99.99,,2013-10-23 00:11:00,
2013-10-22 20:22:00,79.0,74.0,29.87,West,264,8.0,14.0,85,99.99,,,-99.99,,2013-10-23 00:22:00,
2013-10-22 20:42:00,78.0,74.0,29.87,West,269,5.0,9.0,89,99.99,,,-99.99,,2013-10-23 00:42:00,
2013-10-22 20:52:00,78.0,75.0,29.88,WSW,257,4.0,6.0,90,99.99,,,-99.99,,2013-10-23 00:52:00,
2013-10-22 21:23:00,78.0,76.0,29.89,West,267,6.0,13.0,93,99.99,,,-99.99,,2013-10-23 01:23:00,
2013-10-22 21:42:00,77.0,75.0,29.90,WNW,283,5.0,9.0,95,99.99,,,-99.99,,2013-10-23 01:42:00,
2013-10-22 21:52:00,77.0,76.0,29.91,WNW,293,3.0,6.0,96,99.99,,,-99.99,,2013-10-23 01:52:00,
2013-10-22 22:22:00,76.0,75.0,29.90,West,269,5.0,9.0,97,99.99,,,-99.99,,2013-10-23 02:22:00,
2013-10-22 22:54:00,75.0,74.0,29.89,West,280,4.0,7.0,98,99.99,,,-99.99,,2013-10-23 02:54:00,
2013-10-22 23:22:00,74.0,73.0,29.88,West,267,5.0,8.0,98,99.99,,,-99.99,,2013-10-23 03:22:00,
2013-10-22 23:55:00,74.0,73.0,29.87,WSW,257,2.0,3.0,98,99.99,,,-99.99,,2013-10-23 03:55:00,